Tracking 22130 objects as of 21-Jan-2021
HD Live streaming from Space Station
objects crossing your sky now

GORIZONT 31

Track GORIZONT 31 now!
GORIZONT 31 is classified as:


NORAD ID: 23775
Int'l Code: 1996-005A
Perigee: 35,832.2 km
Apogee: 35,965.9 km
Inclination: 14.5 °
Period: 1,441.5 minutes
Semi major axis: 42270 km
RCS: 12.5892 m2 (large)
Launch date: January 25, 1996
Source: Commonwealth of Independent States (former USSR) (CIS)
Launch site: TYURATAM MISSILE AND SPACE COMPLEX (TTMTR)

Telecommunications; telephone and television communications to the Russian republic.
aabbcc
Your satellite tracking list
Your tracking list is empty




NASA's NSSDC Master Catalog

Two Line Element Set (TLE):
1 23775U 96005A   21021.26286910 -.00000278  00000-0  00000+0 0  9991
2 23775  14.5116   9.7362 0015818 191.8701 339.6109  0.99897242 91338
Source of the keplerian elements: AFSPC